Vertical_Velocity
-1 2 -1 2 -1 5 5 1 -0 -2 -7 -7 -3 2 -4 0 -3 -1 4 -3 1 -0 2 2 -2 -1 -2 -3 -3 -3 -1 -5 -4 -5 -4 2 -1 -3
-2 0 3 3 5 -0 0 4 1 3 1 1 -8 2 -2 1 -2 0 -4 1 -0 -1 -2 -0 -4 -1 -3 -1 -2 -2 -2 -3 -4 -3 0 3 -6 -7
-1 -3 -1 6 3 2 4 5 3 7 2 -8 2 6 -8 1 -4 -1 -3 -4 -1 -2 -0 -4 -1 -4 -4 -2 -2 -2 -3 -3 -2 -1 0 -1 -3 1
1 -1 -5 5 0 4 4 -0 -0 5 8 -2 7 -5 4 4 6 -4 -1 4 -0 -5 4 -4 -1 -3 -2 -2 -3 -2 -2 -2 -2 -1 -2 -5 -0 -1
6 0 -0 2 -6 3 1 -1 2 6 0 2 4 -3 -1 -1 1 1 2 0 -1 3 2 -4 -1 -2 -2 -2 -2 -0 -0 -3 0 -1 0 -2 -2 -2
-3 -2 1 -1 4 4 -2 -0 5 5 1 8 3 2 2 0 1 1 -1 -3 1 2 -1 -2 0 -3 0 -2 -1 -1 -3 -1 -1 -1 -3 1 -4 0
13 2 1 -4 5 7 -0 3 7 6 3 -2 -1 1 -1 -1 -0 2 0 1 -4 4 -2 -0 -1 -2 -2 -4 -0 -2 -2 1 -2 -2 -4 1 -3 -1
5 4 -2 6 -4 7 4 4 10 5 -3 2 -3 -5 -1 1 2 2 -1 1 -1 -6 -4 -1 -2 0 -2 -1 -0 -2 -1 -1 -2 0 -3 -2 -1 -3
-6 4 6 -8 2 4 5 9 4 -1 2 15 1 -1 1 4 2 -1 -1 -2 -0 -2 -3 -3 -2 -1 -1 -3 -5 -4 -1 -1 -1 -3 -3 -2 -2 -1
1 1 3 -2 -2 3 14 3 6 -12 4 -2 3 3 -2 3 -0 -2 -4 -2 0 -1 -1 -6 0 -1 0 -2 -5 -4 0 -0 0 -2 -1 -2 -1 -0
4 21 -6 -2 -6 8 13 6 1 3 3 5 -2 5 3 2 4 -3 -2 -1 -1 -1 -4 -3 -1 -1 1 -3 -1 -2 1 1 -3 -3 -3 -1 0 -1
6 8 3 6 9 3 12 7 5 -1 1 0 -6 -1 5 1 3 -2 -2 -2 -3 -1 -6 -4 -2 -1 -2 -2 -1 -1 1 -1 -3 -1 -1 0 1 -2
3 -0 -2 1 9 3 7 7 6 10 1 2 2 3 -3 2 -1 1 -0 -4 -4 -1 -3 -0 -3 -1 -3 -7 -3 -2 0 -2 -2 -3 -2 -3 -0 2
-2 0 -3 -2 7 1 5 11 3 5 6 3 9 -2 -1 1 -4 3 0 -3 -3 1 -2 -1 -2 0 -1 -5 -7 2 1 -3 -3 -3 -2 -1 2 3
2 -0 -0 7 9 2 3 6 -3 1 5 -2 7 -1 2 -2 -1 1 -4 -5 -1 1 0 -1 -1 -0 -1 -3 -6 -2 -3 -2 1 -2 1 -0 -0 2
1 -5 4 11 5 4 4 -2 5 2 4 2 -0 -12 14 -6 0 -0 -4 -4 1 -1 -2 -2 1 0 -2 -1 1 -3 1 -6 -2 0 0 -2 0 1
5 -7 7 6 -2 2 1 5 8 -2 -1 -1 -3 -4 8 -3 2 -5 -3 -1 0 0 -1 -1 2 0 -1 3 -1 1 -4 -1 1 -4 -0 -5 2 -2
1 -3 4 3 -0 -3 1 2 3 0 2 -2 -1 -0 2 0 -5 -4 -2 -0 1 -1 -2 0 -1 -5 -1 -4 1 -2 1 -1 -1 -2 1 -3 -6 5
3 1 5 3 2 4 5 2 1 2 9 -6 2 -2 3 -3 -5 -1 -1 0 0 -2 -1 -0 -1 0 -0 1 2 -4 -4 -2 -3 -2 1 2 -7 2
16 1 6 4 3 5 5 7 -1 8 2 -1 -2 2 1 -6 -1 -1 -0 0 -1 -1 1 -2 -0 1 0 -1 -8 3 7 -3 3 -3 -0 -1 1 -4
6 8 6 4 6 9 10 5 11 6 2 -1 -1 3 -4 -3 -2 -1 -0 -1 -2 1 0 0 2 0 -1 -2 -4 -10 2 8 2 -0 1 -3 -4 -5
2 2 3 2 4 3 3 6 1 -4 1 -0 3 -1 -4 -2 0 -0 -1 -3 -1 1 -1 1 1 -2 -4 -3 -3 -1 -3 3 8 1 1 4 2 -4
4 4 2 3 4 4 1 2 7 -1 2 2 0 -3 -2 -1 -0 0 -2 -2 -0 -0 -1 1 -0 -5 -3 -3 2 -4 -4 -2 -5 -6 9 2 1 5
Height
1421 1422 1422 1423 1424 1425 1425 1425 1425 1425 1424 1425 1427 1425 1424 1423 1423 1422 1421 1417 1416 1411 1407 1404 1401 1399 1397 1395 1390 1385 1381 1377 1374 1372 1370 1367 1364 1362
1411 1413 1413 1413 1413 1414 1415 1416 1416 1416 1414 1416 1418 1418 1416 1416 1417 1416 1415 1412 1408 1405 1402 1398 1395 1392 1389 1386 1381 1376 1373 1370 1369 1367 1364 1361 1359 1357
1400 1401 1402 1404 1404 1403 1404 1406 1405 1406 1404 1405 1408 1409 1408 1409 1409 1408 1406 1403 1398 1395 1392 1390 1388 1385 1381 1376 1372 1369 1367 1364 1363 1361 1359 1357 1355 1353
1389 1389 1390 1393 1393 1394 1394 1394 1395 1397 1397 1396 1399 1398 1400 1400 1399 1398 1396 1393 1391 1386 1384 1383 1380 1377 1372 1367 1365 1363 1361 1358 1357 1355 1354 1352 1351 1348
1378 1378 1377 1380 1381 1383 1383 1384 1385 1387 1388 1389 1389 1388 1390 1390 1391 1390 1388 1387 1384 1380 1376 1374 1372 1369 1365 1362 1359 1357 1356 1354 1352 1350 1350 1348 1345 1342
1364 1366 1368 1368 1367 1369 1372 1373 1375 1376 1378 1378 1380 1379 1382 1382 1382 1383 1380 1381 1379 1374 1371 1369 1363 1362 1360 1357 1354 1352 1350 1348 1347 1347 1345 1342 1339 1337
1352 1351 1353 1356 1358 1359 1360 1362 1363 1366 1367 1369 1372 1373 1372 1373 1373 1375 1374 1374 1372 1369 1364 1363 1358 1356 1354 1352 1349 1346 1345 1343 1343 1341 1339 1337 1333 1331
1344 1340 1340 1344 1347 1349 1350 1352 1353 1353 1356 1356 1361 1363 1365 1366 1366 1367 1369 1369 1367 1363 1360 1357 1353 1351 1349 1346 1344 1342 1339 1338 1336 1334 1332 1330 1328 1325
1331 1332 1330 1332 1336 1338 1340 1341 1344 1347 1348 1350 1351 1353 1356 1358 1358 1359 1361 1362 1361 1357 1355 1352 1350 1347 1343 1340 1338 1336 1335 1333 1330 1328 1325 1323 1320 1317
1322 1319 1321 1323 1324 1325 1326 1329 1332 1335 1338 1340 1343 1347 1348 1349 1350 1351 1354 1355 1354 1352 1350 1349 1347 1343 1338 1334 1333 1332 1331 1327 1324 1321 1318 1315 1313 1310
1313 1308 1307 1310 1311 1313 1316 1316 1319 1324 1329 1330 1336 1339 1341 1343 1344 1345 1346 1349 1349 1348 1345 1344 1342 1338 1332 1329 1329 1328 1325 1322 1320 1317 1313 1310 1307 1303
1303 1298 1298 1298 1302 1303 1307 1307 1310 1313 1317 1322 1327 1331 1334 1337 1339 1339 1340 1342 1344 1344 1342 1341 1339 1334 1328 1326 1326 1324 1320 1317 1314 1311 1307 1306 1302 1298
1294 1291 1289 1291 1294 1294 1299 1301 1303 1306 1310 1317 1320 1323 1327 1331 1335 1335 1335 1337 1338 1339 1337 1336 1334 1332 1329 1325 1321 1319 1316 1312 1309 1306 1302 1299 1297 1293
1287 1285 1283 1284 1286 1288 1291 1294 1296 1300 1305 1309 1315 1318 1320 1325 1331 1331 1332 1333 1333 1334 1332 1331 1330 1329 1326 1321 1318 1316 1312 1308 1304 1301 1298 1294 1290 1287
1279 1277 1277 1277 1277 1278 1282 1286 1289 1296 1300 1305 1308 1314 1317 1322 1326 1327 1328 1330 1331 1330 1329 1328 1326 1324 1322 1318 1314 1309 1306 1303 1300 1297 1293 1288 1284 1280
1272 1270 1270 1270 1270 1271 1274 1277 1283 1288 1295 1299 1304 1311 1314 1317 1321 1323 1325 1327 1327 1325 1325 1324 1322 1319 1316 1313 1310 1305 1303 1301 1296 1292 1287 1282 1278 1275
1267 1267 1264 1261 1260 1265 1266 1270 1277 1283 1292 1294 1300 1306 1312 1313 1317 1320 1322 1323 1324 1323 1322 1322 1319 1316 1313 1309 1305 1302 1299 1295 1292 1287 1282 1276 1271 1268
1261 1263 1260 1256 1255 1258 1261 1266 1273 1278 1285 1289 1297 1305 1308 1310 1314 1317 1319 1320 1320 1320 1320 1319 1316 1313 1309 1306 1303 1299 1296 1291 1286 1281 1276 1270 1263 1261
1255 1256 1256 1254 1253 1254 1255 1261 1266 1273 1280 1285 1294 1301 1304 1306 1311 1314 1316 1317 1317 1317 1317 1315 1312 1310 1306 1303 1300 1296 1291 1285 1279 1274 1270 1265 1258 1252
1253 1251 1253 1253 1252 1252 1254 1255 1261 1267 1276 1284 1291 1297 1299 1304 1308 1311 1313 1314 1315 1315 1315 1312 1310 1308 1305 1302 1297 1293 1288 1280 1275 1268 1263 1257 1252 1245
1253 1252 1252 1252 1252 1252 1251 1253 1258 1266 1274 1282 1290 1293 1297 1302 1306 1308 1310 1312 1313 1314 1312 1311 1309 1307 1303 1300 1294 1287 1282 1278 1270 1263 1257 1249 1243 1237
1252 1251 1249 1249 1250 1251 1252 1256 1263 1267 1275 1283 1287 1291 1296 1300 1303 1305 1308 1310 1312 1312 1310 1309 1307 1304 1301 1297 1291 1284 1278 1273 1268 1260 1254 1249 1242 1235
1249 1247 1245 1245 1246 1247 1251 1257 1261 1268 1276 1281 1285 1289 1295 1298 1301 1304 1307 1309 1310 1310 1309 1309 1306 1304 1300 1295 1289 1283 1276 1268 1261 1255 1251 1245 1238 1231